Location: Ravensburg
(47.7866°N, 9.6124°E)
Time: 09:36:16
(UTC+02:00)

YUBILEINY - Pass Details

Date: 18 March 2026
Orbit: 1477 x 1509 km, 82.5° (Epoch: 17 April)

Event Time Altitude Azimuth Distance (km) Brightness Sun altitude
Rises 05:20:00 0° 342° (NNW) 4,619 ? -12.3°
Reaches altitude 10° 05:23:42 10° 329° (NNW) 3,631 ? -11.7°
Maximum altitude 05:29:44 22° 284° (WNW) 2,820 ? -10.7°
Drops below altitude 10° 05:35:45 10° 239° (WSW) 3,611 ? -9.7°
Enters shadow 05:37:46 - 230° (SW) 4,119 ? -9.4°
